WC1Z Weather Reports


Display with metric or nautical units.
time (UTC)temp
F
wind
direction
speed
MPH
gust
MPH
rain 1hr
in
rain 24hr
in
rain mn
in
humidity
%
barometer
mb
20260905204700 77 277 6.0 9.0 0.33 0.00 1.34 90 1011.8
20260905204200 78 273 5.0 7.0 0.33 0.00 1.34 89 1011.7
20260905203700 78 282 5.0 7.0 0.33 0.00 1.34 89 1011.8
20260905203200 79 288 6.0 7.0 0.33 0.00 1.34 89 1012.0
20260905202659 80 315 5.0 9.0 0.33 0.00 1.34 87 1012.0
20260905202200 80 280 4.0 5.0 0.38 0.00 1.39 83 1011.8
20260905201700 80 242 7.0 10.0 0.33 0.00 1.34 85 1011.8
20260905201200 80 248 7.0 10.0 0.33 0.00 1.34 87 1011.8
20260905200700 82 222 5.0 7.0 0.21 0.00 1.22 85 1011.9
20260905200200 83 254 6.0 9.0 0.18 0.00 1.19 85 1011.8
20260905195700 86 304 6.0 10.0 0.00 0.00 1.18 83 1011.5
20260905195200 90 281 6.0 9.0 0.00 0.00 1.15 75 1011.7
20260905194700 91 212 3.0 4.0 0.00 0.00 1.01 67 1011.8
20260905194200 91 219 2.0 4.0 0.00 0.00 1.01 66 1011.7
20260905193700 92 208 4.0 6.0 0.00 0.00 1.01 67 1011.7
20260905193200 92 178 6.0 9.0 0.00 0.00 1.01 66 1011.8
20260905192700 91 277 4.0 5.0 0.00 0.00 1.01 65 1011.8
20260905192200 91 332 4.0 5.0 0.00 0.00 1.01 64 1011.9
20260905191700 91 26 4.0 8.0 0.00 0.00 1.01 66 1012.1
20260905191200 90 336 0.0 2.0 0.00 0.00 1.01 68 1012.1
20260905190700 90 179 3.0 5.0 0.00 0.00 1.01 69 1012.2
20260905190201 89 265 3.0 4.0 0.00 0.00 1.01 71 1012.3
20260905185701 89 171 4.0 6.0 0.00 0.00 1.01 71 1012.4
20260905185200 89 243 2.0 4.0 0.00 0.00 1.01 72 1012.4
20260905184701 88 218 4.0 6.0 0.00 0.00 1.01 72 1012.4
20260905184200 88 258 3.0 4.0 0.00 0.00 1.01 73 1012.6
20260905183700 87 304 1.0 2.0 0.00 0.00 1.01 72 1012.7
20260905183201 87 243 4.0 5.0 0.00 0.00 1.01 74 1012.8
20260905182700 87 243 2.0 3.0 0.00 0.00 1.01 73 1012.8
20260905182200 86 263 1.0 3.0 0.00 0.00 1.01 73 1012.8
20260905181700 86 279 3.0 5.0 0.00 0.00 1.01 73 1012.9
20260905181200 85 256 4.0 5.0 0.00 0.00 1.01 77 1013.0
20260905180700 85 223 4.0 4.0 0.00 0.00 1.01 79 1013.1
20260905180201 85 249 3.0 5.0 0.00 0.00 1.01 78 1013.2
20260905175700 84 289 3.0 4.0 0.00 0.00 1.03 80 1013.2
20260905175200 83 360 1.0 2.0 0.00 0.00 1.03 80 1013.4
20260905174701 82 94 3.0 4.0 0.01 0.00 1.03 84 1013.5
20260905174205 81 92 1.0 2.0 0.02 0.00 1.03 85 1013.6
20260905173701 81 181 2.0 3.0 0.02 0.00 1.03 89 1013.7
20260905173200 80 221 4.0 4.0 0.03 0.00 1.03 90 1013.8
20260905172702 80 223 2.0 3.0 0.21 0.00 1.03 91 1013.9
20260905172200 80 222 3.0 3.0 0.21 0.00 0.91 92 1013.9
20260905171700 79 221 3.0 4.0 0.38 0.00 0.91 92 1014.0
20260905171202 79 219 3.0 3.0 0.51 0.00 0.91 93 1014.1
20260905170700 78 220 3.0 3.0 0.51 0.00 0.91 94 1014.1
20260905170201 78 219 4.0 4.0 0.78 0.00 0.91 94 1014.2
20260905165700 78 218 3.0 4.0 0.81 0.00 0.92 94 1014.3
20260905165202 78 237 3.0 7.0 0.81 0.00 0.82 93 1014.3
20260905164700 78 286 3.0 7.0 0.81 0.00 0.82 93 1014.4
20260905164200 78 320 3.0 5.0 0.78 0.00 0.82 93 1014.4
20260905163700 78 339 3.0 3.0 0.74 0.00 0.82 93 1014.5
20260905163200 78 327 2.0 2.0 0.74 0.00 0.78 93 1014.4
20260905162700 77 326 4.0 7.0 0.41 0.00 0.78 93 1014.4
20260905162201 77 315 4.0 5.0 0.36 0.00 0.74 93 1014.4
20260905161708 77 311 2.0 2.0 0.36 0.00 0.41 92 1014.5
20260905161200 77 113 3.0 4.0 0.22 0.00 0.36 92 1014.6
20260905160700 77 321 2.0 4.0 0.09 0.00 0.32 91 1014.6
20260905160200 78 289 2.0 5.0 0.03 0.00 0.22 90 1014.8
20260905155702 78 10 3.0 5.0 0.03 0.00 0.09 89 1014.8
20260905155200 78 36 3.0 4.0 0.02 0.00 0.03 88 1014.6
20260905154700 79 360 2.0 4.0 0.01 0.00 0.02 87 1014.4
20260905154200 80 23 4.0 5.0 0.00 0.00 0.02 86 1014.6
20260905153700 80 323 2.0 3.0 0.00 0.00 0.01 83 1014.6
20260905153200 80 302 5.0 8.0 0.00 0.00 0.00 82 1014.7
20260905152701 81 30 0.0 1.0 0.00 0.00 0.00 83 1014.6
20260905152200 81 15 2.0 4.0 0.00 0.00 0.00 82 1014.7
20260905151700 82 295 3.0 5.0 0.00 0.00 0.00 81 1014.6
20260905151200 82 315 0.0 2.0 0.00 0.00 0.00 81 1014.6
20260905150700 82 290 3.0 4.0 0.00 0.00 0.00 81 1014.5
20260905150200 82 342 2.0 3.0 0.00 0.00 0.00 81 1014.6
20260905145700 82 282 3.0 4.0 0.00 0.00 0.00 80 1014.5
20260905145200 82 40 0.0 0.0 0.00 0.00 0.00 81 1014.5
20260905144700 81 296 2.0 3.0 0.00 0.00 0.00 81 1014.5
20260905144201 81 291 3.0 4.0 0.00 0.00 0.00 82 1014.5
20260905143700 81 278 4.0 6.0 0.00 0.00 0.00 81 1014.4
20260905143204 81 286 4.0 5.0 0.00 0.00 0.00 82 1014.4
20260905142700 81 301 1.0 2.0 0.00 0.00 0.00 82 1014.5
20260905142200 80 283 1.0 2.0 0.00 0.00 0.00 83 1014.5
20260905141701 80 305 2.0 3.0 0.00 0.00 0.00 83 1014.5
20260905141201 80 282 4.0 4.0 0.00 0.00 0.00 83 1014.5
20260905140700 80 291 3.0 3.0 0.00 0.00 0.00 83 1014.5
20260905140202 80 290 2.0 4.0 0.00 0.00 0.00 84 1014.5
20260905135700 80 286 2.0 2.0 0.00 0.00 0.00 84 1014.5
20260905135201 80 285 3.0 4.0 0.00 0.00 0.00 85 1014.5
20260905134700 80 264 1.0 2.0 0.00 0.00 0.00 86 1014.4
20260905134201 80 360 0.0 0.0 0.00 0.00 0.00 87 1014.4
20260905133701 80 234 2.0 3.0 0.00 0.00 0.00 88 1014.5
20260905133200 79 236 2.0 2.0 0.00 0.00 0.00 88 1014.5
20260905132701 79 230 1.0 2.0 0.00 0.00 0.00 88 1014.4
20260905132200 79 172 0.0 2.0 0.00 0.00 0.00 89 1014.3
20260905131700 79 161 1.0 2.0 0.00 0.00 0.00 90 1014.3
20260905131200 78 134 0.0 1.0 0.00 0.00 0.00 91 1014.3
20260905130700 78 360 0.0 0.0 0.00 0.00 0.00 91 1014.2
20260905130200 78 83 0.0 1.0 0.00 0.00 0.00 91 1014.2
20260905125700 78 101 1.0 2.0 0.00 0.00 0.00 92 1014.2
20260905125201 77 96 1.0 1.0 0.00 0.00 0.00 92 1014.1
20260905124700 77 116 0.0 0.0 0.00 0.00 0.00 92 1014.0
20260905124201 77 7 0.0 1.0 0.00 0.00 0.00 92 1013.9
20260905123700 77 164 1.0 1.0 0.00 0.00 0.00 92 1013.9
20260905123200 77 151 1.0 2.0 0.00 0.00 0.00 92 1013.9
20260905122701 77 121 1.0 2.0 0.00 0.00 0.00 92 1013.9
20260905122200 77 360 0.0 0.0 0.00 0.00 0.00 92 1013.8
20260905121700 77 118 0.0 0.0 0.00 0.00 0.00 92 1013.8
20260905121200 77 114 2.0 2.0 0.00 0.00 0.00 92 1013.8
20260905120700 77 126 1.0 2.0 0.00 0.00 0.00 92 1013.7
20260905120200 77 143 0.0 1.0 0.00 0.00 0.00 92 1013.7
20260905115701 77 157 1.0 2.0 0.00 0.00 0.00 92 1013.5
20260905115200 77 360 0.0 0.0 0.00 0.00 0.00 92 1013.5
20260905114700 77 360 0.0 0.0 0.00 0.00 0.00 92 1013.5
20260905114200 77 360 0.0 0.0 0.00 0.00 0.00 92 1013.5
20260905113700 77 360 0.0 0.0 0.00 0.00 0.00 92 1013.5
20260905113200 77 206 0.0 0.0 0.00 0.00 0.00 92 1013.4
20260905112700 77 360 0.0 0.0 0.00 0.00 0.00 92 1013.4
20260905112200 77 360 0.0 0.0 0.00 0.00 0.00 92 1013.3
20260905111700 77 360 0.0 0.0 0.00 0.00 0.00 92 1013.3
20260905111201 77 360 0.0 0.0 0.00 0.00 0.00 92 1013.2
20260905110700 77 360 0.0 0.0 0.00 0.00 0.00 92 1013.3
20260905110201 77 360 0.0 0.0 0.00 0.00 0.00 92 1013.3
20260905105700 77 360 0.0 0.0 0.00 0.00 0.00 92 1013.3
20260905105200 77 360 0.0 0.0 0.00 0.00 0.00 92 1013.4
20260905104700 77 218 0.0 0.0 0.00 0.00 0.00 92 1013.4
20260905104201 77 360 0.0 0.0 0.00 0.00 0.00 92 1013.4
20260905103700 77 360 0.0 0.0 0.00 0.00 0.00 91 1013.3
20260905103202 77 360 0.0 0.0 0.00 0.00 0.00 92 1013.3
20260905102701 77 125 0.0 0.0 0.00 0.00 0.00 91 1013.3
20260905102201 77 116 1.0 1.0 0.00 0.00 0.00 91 1013.2
20260905101700 77 88 0.0 1.0 0.00 0.00 0.00 91 1013.1
20260905101200 77 360 0.0 0.0 0.00 0.00 0.00 91 1013.0
20260905100701 77 174 2.0 2.0 0.00 0.00 0.00 91 1013.0
20260905100202 77 360 0.0 0.0 0.00 0.00 0.00 91 1012.9
20260905095700 77 360 0.0 0.0 0.00 0.00 0.00 91 1012.9
20260905095201 77 360 0.0 0.0 0.00 0.00 0.00 91 1012.9
20260905094700 77 360 0.0 0.0 0.00 0.00 0.00 91 1012.9
20260905094200 77 125 0.0 1.0 0.00 0.00 0.00 91 1012.8
20260905093700 77 360 0.0 0.0 0.00 0.00 0.00 91 1012.7
20260905093200 77 360 0.0 0.0 0.00 0.00 0.00 91 1012.7
20260905092700 77 360 0.0 0.0 0.00 0.00 0.00 91 1012.8
20260905092201 77 360 0.0 0.0 0.00 0.00 0.00 91 1012.8
20260905091701 77 360 0.0 0.0 0.00 0.00 0.00 91 1012.8
20260905091200 77 360 0.0 0.0 0.00 0.00 0.00 90 1012.8
20260905090702 77 360 0.0 0.0 0.00 0.00 0.00 90 1012.7
20260905090201 77 360 0.0 0.0 0.00 0.00 0.00 90 1012.7
20260905085700 77 360 0.0 0.0 0.00 0.00 0.00 90 1012.7
20260905085200 77 360 0.0 0.0 0.00 0.00 0.00 90 1012.7
20260905084700 77 360 0.0 0.0 0.00 0.00 0.00 90 1012.7
20260905084200 77 360 0.0 0.0 0.00 0.00 0.00 90 1012.7
20260905083701 78 360 0.0 0.0 0.00 0.00 0.00 90 1012.7
20260905083200 78 360 0.0 0.0 0.00 0.00 0.00 89 1012.7
20260905082700 78 287 0.0 0.0 0.00 0.00 0.00 89 1012.8
20260905082200 78 360 0.0 0.0 0.00 0.00 0.00 89 1012.8
20260905081700 77 360 0.0 0.0 0.00 0.00 0.00 90 1012.9
20260905081200 77 70 0.0 1.0 0.00 0.00 0.00 90 1013.0
20260905080700 77 105 0.0 0.0 0.00 0.00 0.00 89 1013.0
20260905080200 77 360 0.0 0.0 0.00 0.00 0.00 89 1013.0
20260905075700 77 360 0.0 0.0 0.00 0.00 0.00 89 1013.0
20260905075200 77 360 0.0 0.0 0.00 0.00 0.00 89 1013.0
20260905074700 78 360 0.0 0.0 0.00 0.00 0.00 89 1013.0
20260905074200 78 360 0.0 0.0 0.00 0.00 0.00 89 1013.0
20260905073700 78 360 0.0 0.0 0.00 0.00 0.00 89 1013.0
20260905073200 78 360 0.0 0.0 0.00 0.00 0.00 89 1013.1
20260905072700 77 360 0.0 0.0 0.00 0.00 0.00 89 1013.1
20260905072200 77 360 0.0 0.0 0.00 0.00 0.00 89 1013.1
20260905071700 77 111 2.0 2.0 0.00 0.00 0.00 89 1013.1
20260905071200 77 121 1.0 2.0 0.00 0.00 0.00 89 1013.2
20260905070701 77 119 0.0 0.0 0.00 0.00 0.00 89 1013.1
20260905070200 77 204 0.0 1.0 0.00 0.00 0.00 89 1013.1
20260905065700 77 360 0.0 0.0 0.00 0.00 0.00 89 1013.1
20260905065200 78 298 0.0 0.0 0.00 0.00 0.00 89 1013.0
20260905064700 77 360 0.0 0.0 0.00 0.00 0.00 88 1013.0
20260905064200 77 360 0.0 0.0 0.00 0.00 0.00 88 1013.1
20260905063700 77 360 0.0 0.0 0.00 0.00 0.00 88 1013.0
20260905063200 78 360 0.0 0.0 0.00 0.00 0.00 88 1013.0
20260905062700 78 360 0.0 0.0 0.00 0.00 0.00 88 1013.1
20260905062202 78 262 1.0 1.0 0.00 0.00 0.00 88 1013.1
20260905061701 78 360 0.0 0.0 0.00 0.00 0.00 88 1013.1
20260905061200 78 360 0.0 0.0 0.00 0.00 0.00 88 1013.1
20260905060700 78 360 0.0 0.0 0.00 0.00 0.00 88 1013.1
20260905060200 78 360 0.0 0.0 0.00 0.00 0.00 87 1013.0
20260905055700 78 360 0.0 0.0 0.00 0.00 0.00 87 1013.0
20260905055200 78 360 0.0 0.0 0.00 0.00 0.00 86 1013.1
20260905054701 79 360 0.0 0.0 0.00 0.00 0.00 86 1013.1
20260905054201 79 360 0.0 0.0 0.00 0.00 0.00 85 1013.1
20260905053700 79 360 0.0 0.0 0.00 0.00 0.00 85 1013.1
20260905053201 79 360 0.0 0.0 0.00 0.00 0.00 84 1013.2
20260905052700 79 360 0.0 0.0 0.00 0.00 0.00 84 1013.2
20260905052202 79 360 0.0 0.0 0.00 0.00 0.00 85 1013.3
20260905051701 79 360 0.0 0.0 0.00 0.00 0.00 85 1013.3
20260905051201 79 104 1.0 2.0 0.00 0.00 0.00 85 1013.2
20260905050700 79 90 2.0 2.0 0.00 0.00 0.00 85 1013.2
20260905050200 79 360 0.0 0.0 0.00 0.00 0.00 85 1013.2
20260905045702 79 360 0.0 0.0 0.00 0.00 0.00 85 1013.1
20260905045200 79 360 0.0 0.0 0.00 0.00 0.00 85 1013.1
20260905044700 79 87 1.0 2.0 0.00 0.00 0.00 85 1013.1
20260905044200 79 103 1.0 2.0 0.00 0.00 0.00 85 1013.2
20260905043701 79 360 0.0 0.0 0.00 0.00 0.00 84 1013.2
20260905043200 79 360 0.0 0.0 0.00 0.00 0.00 84 1013.2
20260905042700 79 360 0.0 0.0 0.00 0.00 0.00 84 1013.3
20260905042200 80 360 0.0 0.0 0.00 0.00 0.00 83 1013.4
20260905041700 80 360 0.0 0.0 0.00 0.00 0.00 83 1013.4
20260905041200 80 360 0.0 0.0 0.00 0.00 0.00 83 1013.4
20260905040700 80 360 0.0 0.0 0.00 0.00 0.00 82 1013.4
20260905040200 80 360 0.0 0.0 0.00 0.00 0.00 82 1013.5
20260905035701 81 360 0.0 0.0 0.00 0.00 0.00 81 1013.5
20260905035201 81 360 0.0 0.0 0.00 0.00 0.00 81 1013.6
20260905034700 81 276 0.0 0.0 0.00 0.00 0.00 80 1013.7
20260905034200 82 360 0.0 0.0 0.00 0.00 0.00 79 1013.7
20260905033700 82 360 0.0 0.0 0.00 0.00 0.00 78 1013.8
20260905033201 82 360 0.0 0.0 0.00 0.00 0.00 78 1013.8
20260905032700 82 127 1.0 2.0 0.00 0.00 0.00 77 1013.8
20260905032200 83 360 0.0 0.0 0.00 0.00 0.00 77 1013.9
20260905031701 83 360 0.0 0.0 0.00 0.00 0.00 77 1013.8
20260905031201 83 360 0.0 0.0 0.00 0.00 0.00 76 1013.8
20260905030703 83 97 0.0 1.0 0.00 0.00 0.00 75 1013.8
20260905030200 83 360 0.0 0.0 0.00 0.00 0.00 74 1013.8
20260905025700 83 360 0.0 0.0 0.00 0.00 0.00 74 1013.7
20260905025200 83 191 2.0 4.0 0.00 0.00 0.00 74 1013.6
20260905024701 83 186 2.0 4.0 0.00 0.00 0.00 74 1013.7
20260905024200 84 199 2.0 3.0 0.00 0.00 0.00 74 1013.6
20260905023701 84 360 0.0 0.0 0.00 0.00 0.00 72 1013.5
20260905023203 84 100 0.0 1.0 0.00 0.00 0.00 72 1013.4
20260905022700 84 78 2.0 3.0 0.00 0.00 0.00 72 1013.4
20260905022200 85 107 1.0 2.0 0.00 0.00 0.00 72 1013.3
20260905021700 85 86 1.0 3.0 0.00 0.00 0.00 71 1013.2
20260905021201 85 108 1.0 2.0 0.00 0.00 0.00 71 1013.2
20260905020700 85 99 0.0 2.0 0.00 0.00 0.00 71 1013.2
20260905020200 85 118 0.0 2.0 0.00 0.00 0.00 70 1013.0
20260905015700 86 189 0.0 0.0 0.00 0.00 0.00 70 1013.0
20260905015200 86 149 0.0 2.0 0.00 0.00 0.00 69 1012.9
20260905014700 86 114 2.0 4.0 0.00 0.00 0.00 69 1012.9
20260905014200 87 126 1.0 2.0 0.00 0.00 0.00 68 1012.9
20260905013700 87 129 1.0 2.0 0.00 0.00 0.00 67 1012.8
20260905013201 87 125 2.0 3.0 0.00 0.00 0.00 67 1012.7
20260905012700 87 131 0.0 2.0 0.00 0.00 0.00 66 1012.7
20260905011718 87 135 0.0 1.0 0.00 0.00 0.00 65 1012.7
20260905011200 87 139 1.0 3.0 0.00 0.00 0.00 65 1012.7
20260905010700 87 147 1.0 3.0 0.00 0.00 0.00 66 1012.6
20260905010200 88 147 0.0 1.0 0.00 0.00 0.00 66 1012.6
20260905005700 88 360 0.0 0.0 0.00 0.00 0.00 64 1012.6
20260905005200 89 120 0.0 1.0 0.00 0.00 0.00 64 1012.5
20260905004700 89 360 0.0 0.0 0.00 0.00 0.00 63 1012.5
20260905004200 90 111 0.0 1.0 0.00 0.00 0.00 61 1012.5
20260905003701 90 101 0.0 3.0 0.00 0.00 0.00 60 1012.4
20260905003200 91 57 0.0 2.0 0.00 0.00 0.00 61 1012.5
20260905002700 91 59 2.0 2.0 0.00 0.00 0.00 59 1012.5
20260905002200 92 122 0.0 2.0 0.00 0.00 0.00 57 1012.4
20260905001700 92 125 0.0 1.0 0.00 0.00 0.00 57 1012.5
20260905001200 92 115 2.0 2.0 0.00 0.00 0.00 56 1012.4
20260905000701 92 107 1.0 3.0 0.00 0.00 0.00 55 1012.4
20260905000200 93 118 4.0 7.0 0.00 0.00 0.00 54 1012.4
20260904235700 93 117 4.0 5.0 0.00 0.00 0.00 54 1012.4
20260904235200 93 121 4.0 6.0 0.00 0.00 0.00 53 1012.3
20260904234700 93 118 3.0 4.0 0.00 0.00 0.00 53 1012.3
20260904234200 93 115 2.0 3.0 0.00 0.00 0.00 53 1012.3
20260904233700 94 123 3.0 5.0 0.00 0.00 0.00 53 1012.3
20260904233200 94 99 3.0 5.0 0.00 0.00 0.00 52 1012.2
20260904232700 94 115 4.0 6.0 0.00 0.00 0.00 51 1012.2
20260904232200 94 109 3.0 5.0 0.00 0.00 0.00 52 1012.2
20260904231700 94 110 5.0 8.0 0.00 0.00 0.00 51 1012.2
20260904231203 94 90 6.0 9.0 0.00 0.00 0.00 50 1012.0
20260904230700 94 94 3.0 4.0 0.00 0.00 0.00 49 1011.9
20260904230201 94 139 4.0 5.0 0.00 0.00 0.00 50 1011.8
20260904225700 94 106 3.0 4.0 0.00 0.00 0.00 51 1011.8
20260904225200 95 99 5.0 9.0 0.00 0.00 0.00 50 1011.8
20260904224702 95 212 3.0 4.0 0.00 0.00 0.00 49 1011.8
20260904224200 95 84 5.0 6.0 0.00 0.00 0.00 46 1011.8
20260904223700 95 150 3.0 6.0 0.00 0.00 0.00 51 1011.9
20260904223200 95 108 5.0 7.0 0.00 0.00 0.00 46 1011.9
20260904222700 95 160 3.0 4.0 0.00 0.00 0.00 46 1011.9
20260904222200 96 126 2.0 3.0 0.00 0.00 0.00 46 1011.9
20260904221700 96 119 4.0 5.0 0.00 0.00 0.00 45 1011.9
20260904221200 96 190 3.0 5.0 0.00 0.00 0.00 46 1011.8
20260904220700 96 197 3.0 5.0 0.00 0.00 0.00 45 1011.8
20260904220200 96 158 5.0 6.0 0.00 0.00 0.00 46 1011.8
20260904215701 95 168 5.0 6.0 0.00 0.00 0.00 46 1011.8
20260904215200 95 159 5.0 7.0 0.00 0.00 0.00 46 1011.9
20260904214700 95 160 4.0 8.0 0.00 0.00 0.00 46 1012.0
20260904214200 95 12 2.0 3.0 0.00 0.00 0.00 45 1012.0
20260904213702 96 118 1.0 3.0 0.00 0.00 0.00 44 1012.1
20260904213200 96 162 4.0 6.0 0.00 0.00 0.00 45 1012.1
20260904212700 95 212 4.0 6.0 0.00 0.00 0.00 45 1012.1
20260904212201 96 187 5.0 8.0 0.00 0.00 0.00 44 1012.1
20260904211701 95 211 4.0 9.0 0.00 0.00 0.00 45 1012.2
20260904211200 95 168 6.0 9.0 0.00 0.00 0.00 44 1012.3
20260904210701 95 166 6.0 8.0 0.00 0.00 0.00 44 1012.3
20260904210200 95 112 4.0 6.0 0.00 0.00 0.00 45 1012.3
20260904205700 95 239 1.0 4.0 0.00 0.00 0.00 44 1012.4
20260904205201 95 288 2.0 4.0 0.00 0.00 0.00 44 1012.5